Tracking 35334 objects as of 13-Sep-2026
HD Live streaming from Space Station
objects crossing your sky now

THORAD AGENA D DEB

Track THORAD AGENA D DEB now!
10-day predictions


NORAD ID: 4741
Int'l Code: 1970-025CQ
Launch date: April 8, 1970
Source: United States (US)
Launch site: AIR FORCE WESTERN TEST RANGE (AFWTR)

Note: This is SATELLITE DEBRIS
Your satellite tracking list
Your tracking list is empty




NASA's NSSDC Master Catalog

Two Line Element Set (TLE):
1 04741U 70025CQ  26256.13213786 -.00000172  00000-0 -79027-3 0  9992
2 04741 100.2912 329.7377 0786596  87.2071 346.8885 11.94709294459700
Source of the keplerian elements: AFSPC